"2010-04-14 00:00:00",23500,11.61,307.8,6.284,1.28,11.44,104.4585,10.69,11.86,12.17,0,110.4,13.31,11.48,269.8
"2010-04-14 00:00:30",23501,12.33,312.9,5.147,1.062,14.11,104.4579,10.69,11.98,12.17,0,110.4,13.3,11.47,274.9
"2010-04-14 00:01:00",23502,12.66,311.8,6.317,1.385,12.88,104.4585,10.69,11.89,12,0,110.4,13.3,11.48,273.8
"2010-04-14 00:01:30",23503,12.69,317.5,6.81,1.048,13.24,104.4573,10.68,11.89,12.02,0,110.4,13.3,11.47,279.5
"2010-04-14 00:02:00",23504,11.17,306.9,5.931,0.81,10.47,104.4559,10.68,11.84,11.99,0,110.4,13.3,11.47,268.9
"2010-04-14 00:02:30",23505,11.57,309.4,7.492,1.045,11.06,104.4553,10.68,11.68,11.93,0,110.4,13.3,11.47,271.4
"2010-04-14 00:03:00",23506,12.42,306,6.415,1.118,10.29,104.4545,10.68,11.73,11.91,0,110.4,13.3,11.47,268.0
"2010-04-14 00:03:30",23507,13.58,311.9,6.023,1.207,13.85,104.4522,10.67,12,12.18,0,110.4,13.3,11.46,273.9
"2010-04-14 00:04:00",23508,12.35,315,5.425,1.79,13.29,104.4491,10.66,11.95,12.14,0,110.4,13.3,11.45,277.0
"2010-04-14 00:04:30",23509,11.82,317.2,9.1,1.209,13.13,104.4438,10.65,11.84,12.16,0,110.4,13.3,11.44,279.2
"2010-04-14 00:05:00",23510,10.48,308.5,6.764,1.534,11.37,104.4435,10.65,11.86,12.39,0,110.4,13.3,11.44,270.5
"2010-04-14 00:05:30",23511,10.79,306.8,5.242,1.108,9.86,104.4398,10.64,11.68,12.18,0,110.4,13.3,11.43,268.8
"2010-04-14 00:06:00",23512,9.97,305.3,4.766,0.63,9.87,104.4415,10.64,11.81,12.42,0,110.4,13.34,11.43,267.3
"2010-04-14 00:06:30",23513,11.6,312.5,5.34,1.084,13.54,104.4463,10.66,11.86,12.6,0,110.4,13.31,11.44,274.5
"2010-04-14 00:07:00",23514,10.53,311.3,6.289,1.113,14.01,104.4443,10.65,11.98,12.77,0,110.4,13.31,11.44,273.3
"2010-04-14 00:07:30",23515,10.33,317.7,6.24,1.377,11.94,104.4373,10.63,11.89,12.62,0,110.4,13.31,11.42,279.7
"2010-04-14 00:08:00",23516,9.73,315.5,7.76,1.092,10.39,104.4342,10.62,11.81,12.73,0,110.4,13.31,11.41,277.5
"2010-04-14 00:08:30",23517,10.25,317.7,6.505,1.209,11.72,104.4322,10.62,11.8,12.62,0,110.4,13.31,11.41,279.7
"2010-04-14 00:09:00",23518,10.38,314.9,2.992,0.566,9.37,104.4317,10.62,11.76,12.61,0,110.4,13.34,11.41,276.9
"2010-04-14 00:09:30",23519,10.93,319.3,9.28,0.702,11.76,104.4317,10.62,11.84,12.57,0,110.4,13.31,11.41,281.3
"2010-04-14 00:10:00",23520,10.23,326.1,7.454,1.371,13.39,104.4317,10.62,11.96,12.79,0,110.4,13.31,11.41,288.1
"2010-04-14 00:10:30",23521,10.65,315.9,7.883,1.333,12.34,104.4317,10.62,11.86,12.91,0,110.4,13.31,11.41,277.9
"2010-04-14 00:11:00",23522,10.67,315.9,7.5,1.223,11.52,104.4317,10.62,11.84,12.67,0,110.4,13.31,11.41,277.9
"2010-04-14 00:11:30",23523,11.2,323.9,5.727,1.571,11.98,104.4317,10.62,11.81,12.55,0,110.4,13.31,11.41,285.9
"2010-04-14 00:12:00",23524,10.45,321.1,7.599,1.788,11.75,104.4317,10.62,11.84,12.62,0,110.4,13.31,11.41,283.1
"2010-04-14 00:12:30",23525,11.07,326.8,7.386,1.286,11.75,104.4317,10.62,11.76,12.64,0,110.4,13.31,11.41,288.8
"2010-04-14 00:13:00",23526,10.69,316.9,8.06,1.273,13.01,104.4317,10.62,11.95,12.82,0,110.5,13.31,11.41,278.9
"2010-04-14 00:13:30",23527,10.54,318.1,8.34,1.442,12.98,104.4317,10.62,11.85,12.89,0,110.4,13.31,11.41,280.1
"2010-04-14 00:14:00",23528,8.23,313.9,6.415,0.975,10.82,104.4317,10.62,11.81,13.05,0,110.4,13.31,11.41,275.9
"2010-04-14 00:14:30",23529,8.22,314.2,6.926,1.581,10.21,104.4317,10.62,11.66,13.04,0,110.4,13.31,11.41,276.2
"2010-04-14 00:15:00",23530,9.44,311.7,3.392,1.378,10.39,104.4317,10.62,11.81,13.25,0,110.4,13.31,11.41,273.7
"2010-04-14 00:15:30",23531,11.22,312.7,3.945,1.294,11.34,104.4317,10.62,11.7,12.65,0,110.4,13.31,11.41,274.7
"2010-04-14 00:16:00",23532,11.75,321,5.076,0.967,14.07,104.4317,10.62,11.9,12.58,0,110.4,13.31,11.41,283.0
"2010-04-14 00:16:30",23533,11.43,317.4,7.503,1.211,12.95,104.4317,10.62,11.88,12.53,0,110.4,13.31,11.41,279.4
"2010-04-14 00:17:00",23534,10.43,310.1,6.823,1.247,12.1,104.4317,10.62,11.91,12.62,0,110.4,13.31,11.41,272.1
"2010-04-14 00:17:30",23535,9.96,310,7.414,1.163,11.21,104.4317,10.62,11.71,12.41,0,110.4,13.3,11.41,272.0
"2010-04-14 00:18:00",23536,8.89,309.3,1.94,0.24,9.36,104.4317,10.62,11.74,12.51,0,110.4,13.34,11.41,271.3
"2010-04-14 00:18:30",23537,9.8,312.1,3.251,0.731,9.56,104.4317,10.62,11.72,12.54,0,110.4,13.3,11.41,274.1
"2010-04-14 00:19:00",23538,11.26,320.8,7.496,1.189,13.33,104.4317,10.62,11.91,12.87,0,110.4,13.3,11.41,282.8
"2010-04-14 00:19:30",23539,11.81,320.1,6.246,0.741,14.31,104.4317,10.62,11.97,12.89,0,110.4,13.3,11.41,282.1
"2010-04-14 00:20:00",23540,10.34,315.1,8.51,1.586,12.11,104.4317,10.62,11.93,12.77,0,110.4,13.3,11.41,277.1
"2010-04-14 00:20:30",23541,10.49,314.3,6.56,1.453,11.36,104.4317,10.62,11.8,12.34,0,110.4,13.3,11.41,276.3
"2010-04-14 00:21:00",23542,9.65,312,5.638,1.017,11.31,104.4317,10.62,11.83,12.3,0,110.4,13.3,11.41,274.0
"2010-04-14 00:21:30",23543,8.71,306.3,4.379,0.602,9.66,104.4317,10.62,11.67,12.18,0,110.4,13.3,11.41,268.3
"2010-04-14 00:22:00",23544,9.79,316.2,7.361,1.319,12.03,104.4317,10.62,11.85,12.45,0,110.4,13.3,11.41,278.2
"2010-04-14 00:22:30",23545,10.67,315.7,5.903,1.3,13.34,104.4317,10.62,11.93,12.47,0,110.4,13.31,11.41,277.7
"2010-04-14 00:23:00",23546,10.98,307.9,7.668,1.04,12.49,104.4317,10.62,11.83,12.55,0,110.4,13.31,11.41,269.9
"2010-04-14 00:23:30",23547,11.81,308.9,5.999,1.362,12.64,104.4317,10.62,11.87,12.66,0,110.4,13.31,11.41,270.9
"2010-04-14 00:24:00",23548,11.15,311.4,5.914,1.266,12.63,104.4317,10.62,11.88,12.55,0,110.4,13.31,11.41,273.4
"2010-04-14 00:24:30",23549,9.12,304.6,2.798,0.471,9.5,104.4317,10.62,11.68,12.33,0,110.4,13.35,11.41,266.6
"2010-04-14 00:25:00",23550,10.02,310.8,6.982,1.403,11.25,104.4317,10.62,11.74,12.51,0,110.4,13.31,11.41,272.8
"2010-04-14 00:25:30",23551,11.25,318.8,6.959,1.22,13.32,104.4317,10.62,11.92,12.53,0,110.4,13.31,11.41,280.8
"2010-04-14 00:26:00",23552,12.1,316.5,7.597,1.115,13.38,104.4317,10.62,11.91,12.4,0,110.4,13.31,11.41,278.5
"2010-04-14 00:26:30",23553,11.98,312.3,5.826,1.175,13.45,104.432,10.62,11.85,12.3,0,110.4,13.31,11.41,274.3
"2010-04-14 00:27:00",23554,11.11,313,6.627,1.328,13.13,104.4317,10.62,11.9,12.34,0,110.4,13.31,11.41,275.0
"2010-04-14 00:27:30",23555,9.71,311.8,6.997,1.417,11.86,104.4323,10.62,11.81,12.22,0,110.4,13.31,11.41,273.8
"2010-04-14 00:28:00",23556,8.38,310.3,3.124,0.439,9.42,104.432,10.62,11.67,12.04,0,110.4,13.35,11.41,272.3
"2010-04-14 00:28:30",23557,8.98,310.1,7.818,1.632,12.51,104.4323,10.62,11.87,12.26,0,110.4,13.31,11.41,272.1
"2010-04-14 00:29:00",23558,9.77,307.6,4.703,1.178,13.6,104.4323,10.62,11.9,12.35,0,110.4,13.31,11.41,269.6
"2010-04-14 00:29:30",23559,8.31,305.6,7.338,1.344,10.51,104.432,10.62,11.68,12.2,0,110.4,13.31,11.41,267.6
"2010-04-14 00:30:00",23560,10.5,306.2,7.238,1.342,13.22,104.4323,10.62,11.87,12.51,0,110.4,13.31,11.41,268.2
"2010-04-14 00:30:30",23561,10.84,304.5,5.257,1.605,13.44,104.4328,10.62,11.92,12.51,0,110.4,13.31,11.41,266.5
"2010-04-14 00:31:00",23562,9.02,290.4,5.427,0.76,10.87,104.4325,10.62,11.84,12.43,0,110.4,13.31,11.41,252.4
"2010-04-14 00:31:30",23563,9.33,293.1,8.02,1.029,11.53,104.4331,10.62,11.82,12.39,0,110.4,13.31,11.41,255.1
"2010-04-14 00:32:00",23564,9.53,302.3,9.78,1.494,12.45,104.4317,10.62,11.84,12.56,0,110.4,13.31,11.41,264.3
"2010-04-14 00:32:30",23565,9.06,299.4,5.756,1.373,11.44,104.4328,10.62,11.75,12.22,0,110.4,13.31,11.41,261.4
"2010-04-14 00:33:00",23566,7.702,295.9,3.316,0.268,9.53,104.4329,10.62,11.71,12.31,0,110.4,13.35,11.41,257.9
"2010-04-14 00:33:30",23567,7.597,308.4,11.17,1.102,10.75,104.4331,10.62,11.83,12.68,0,110.4,13.31,11.41,270.4
"2010-04-14 00:34:00",23568,8.18,320.6,6.697,1.082,13.41,104.4301,10.61,11.89,13.12,0,110.4,13.31,11.40,282.6
"2010-04-14 00:34:30",23569,7.639,309.7,6.221,1.131,10.4,104.4324,10.62,11.73,13.12,0,110.4,13.31,11.41,271.7
"2010-04-14 00:35:00",23570,10.92,316.1,7.098,1.539,11.56,104.429,10.61,11.77,13.3,0,110.4,13.3,11.40,278.1
"2010-04-14 00:35:30",23571,11.39,327.1,8.74,1.572,12.14,104.431,10.62,11.84,13.43,0,110.4,13.3,11.41,289.1
"2010-04-14 00:36:00",23572,10.99,328.4,9.42,1.282,11.39,104.4327,10.62,11.81,13.14,0,110.4,13.31,11.41,290.4
"2010-04-14 00:36:30",23573,11.52,328.8,6.914,1.26,13.22,104.4319,10.62,11.82,12.94,0,110.4,13.3,11.41,290.8
"2010-04-14 00:37:00",23574,11.35,329.1,5.593,1.385,13.25,104.4294,10.61,11.89,13.09,0,110.4,13.31,11.40,291.1
"2010-04-14 00:37:30",23575,10.87,331.2,6.51,1.124,12.74,104.4275,10.61,11.82,12.98,0,110.4,13.3,11.40,293.2
"2010-04-14 00:38:00",23576,9.4,326.6,5.633,1.107,10.62,104.4261,10.6,11.78,13.06,0,110.4,13.3,11.39,288.6
"2010-04-14 00:38:30",23577,9.64,324.2,6.735,1.521,11.15,104.4137,10.57,11.7,12.83,0,110.3,13.3,11.36,286.2
"2010-04-14 00:39:00",23578,8.45,321.1,5.562,1.145,10.82,104.4066,10.55,11.79,12.64,0,110.4,13.31,11.34,283.1
"2010-04-14 00:39:30",23579,10.47,330.8,5.756,1.082,12.23,104.4075,10.56,11.71,12.62,0,110.4,13.31,11.35,292.8
"2010-04-14 00:40:00",23580,10.43,331.6,6.481,1.138,12.26,104.4064,10.55,11.85,12.66,0,110.4,13.31,11.34,293.6
"2010-04-14 00:40:30",23581,10.78,329.6,6.147,1.22,13.32,104.4096,10.56,11.82,12.61,0,110.4,13.31,11.35,291.6
"2010-04-14 00:41:00",23582,10,325.1,7.545,1.474,12.61,104.4078,10.56,11.86,12.63,0,110.4,13.31,11.35,287.1
"2010-04-14 00:41:30",23583,10.77,319.9,4.359,0.861,10.39,104.4093,10.56,11.71,12.16,0,110.4,13.31,11.35,281.9
"2010-04-14 00:42:00",23584,11.9,332.1,5.723,1.155,13.73,104.4087,10.56,11.78,12.05,0,110.4,13.31,11.35,294.1
"2010-04-14 00:42:30",23585,8.22,314.2,3.297,0.583,10.11,104.4093,10.56,11.72,12.01,0,110.4,13.31,11.35,276.2
"2010-04-14 00:43:00",23586,9.81,324.6,6.83,1.219,13.63,104.4057,10.55,11.81,12.08,0,110.4,13.31,11.34,286.6
"2010-04-14 00:43:30",23587,9.94,325.2,7.817,1.136,13.28,104.4006,10.54,11.85,12.23,0,110.4,13.31,11.33,287.2
"2010-04-14 00:44:00",23588,9.7,324.2,8.44,1.334,12.9,104.3931,10.52,11.79,12.21,0,110.4,13.31,11.31,286.2
"2010-04-14 00:44:30",23589,8.96,316.7,5.483,1.467,10.52,104.3789,10.48,11.63,12,0,110.4,13.31,11.27,278.7
"2010-04-14 00:45:00",23590,8.99,322.6,6.993,1.265,11.32,104.3796,10.48,11.65,12.04,0,110.4,13.31,11.27,284.6
"2010-04-14 00:45:30",23591,9.12,323.5,10.44,1.522,11.58,104.3784,10.48,11.7,12.12,0,110.4,13.31,11.27,285.5
"2010-04-14 00:46:00",23592,8.66,326.1,2.774,0.983,10.31,104.3796,10.48,11.66,12.19,0,110.4,13.31,11.27,288.1
"2010-04-14 00:46:30",23593,11.39,327.5,7.809,1.182,13.53,104.3825,10.49,11.83,12.48,0,110.4,13.32,11.28,289.5
"2010-04-14 00:47:00",23594,11.01,330.8,7.415,1.401,13.27,104.3858,10.5,11.79,12.55,0,110.4,13.32,11.29,292.8
"2010-04-14 00:47:30",23595,11.43,323.6,5.941,1.403,12.95,104.3837,10.5,11.82,12.58,0,110.4,13.31,11.28,285.6
"2010-04-14 00:48:00",23596,8.1,322.4,7.52,1.826,10.53,104.3834,10.49,11.61,12.45,0,110.4,13.31,11.28,284.4
"2010-04-14 00:48:30",23597,7.645,317.6,4.014,0.677,9.29,104.384,10.5,11.53,12.47,0,110.4,13.35,11.28,279.6
"2010-04-14 00:49:00",23598,9.39,326.7,7.524,1.413,11.91,104.3878,10.51,11.7,12.78,0,110.4,13.32,11.29,288.7
"2010-04-14 00:49:30",23599,9.03,323.5,6.611,1.266,11.08,104.3882,10.51,11.66,12.93,0,110.4,13.32,11.30,285.5
"2010-04-14 00:50:00",23600,10.84,331.2,7.463,1.331,13.78,104.3879,10.51,11.79,13.36,0,110.4,13.32,11.29,293.2
"2010-04-14 00:50:30",23601,10.78,342.4,4.595,0.847,14.25,104.388,10.51,11.82,14.01,0,110.4,13.31,11.30,304.4
"2010-04-14 00:51:00",23602,9.32,333.3,5.695,1.574,11.45,104.3818,10.49,11.78,14.38,0,110.4,13.31,11.28,295.3
"2010-04-14 00:51:30",23603,9.83,330.7,6.949,0.875,10.31,104.3686,10.46,11.55,14.53,0,110.4,13.31,11.25,292.7
"2010-04-14 00:52:00",23604,9.52,325.3,3.954,0.307,9.17,104.3628,10.44,11.58,14.17,0,110.4,13.35,11.23,287.3
"2010-04-14 00:52:30",23605,11.02,334.4,8.8,1.527,11.88,104.3611,10.44,11.58,14.31,0,110.4,13.31,11.23,296.4
"2010-04-14 00:53:00",23606,12.44,340,5.765,1.102,13.86,104.3605,10.44,11.8,14.54,0,110.4,13.31,11.22,302.0
"2010-04-14 00:53:30",23607,12.42,338.6,3.539,0.953,13.87,104.3628,10.44,11.8,14.52,0,110.4,13.31,11.23,300.6
"2010-04-14 00:54:00",23608,13.13,338.9,5.168,0.453,13.81,104.3607,10.44,11.78,14.76,0,110.4,13.31,11.23,300.9
"2010-04-14 00:54:30",23609,10.57,320.4,8.43,1.675,10.67,104.3412,10.39,11.59,14.58,0,110.4,13.31,11.18,282.4
"2010-04-14 00:55:00",23610,10.06,317.9,2.458,0.48,9.05,104.3316,10.36,11.44,14.23,0,110.4,13.35,11.15,279.9
"2010-04-14 00:55:30",23611,11.38,323.9,8.91,1.52,11.61,104.3271,10.35,11.58,14.26,0,110.4,13.31,11.14,285.9
"2010-04-14 00:56:00",23612,12.05,329.6,6.431,1.416,12.45,104.3012,10.28,11.61,14.37,0,110.4,13.31,11.07,291.6
"2010-04-14 00:56:30",23613,13.94,335.4,5.019,0.68,14.14,104.2978,10.28,11.68,14.95,0,110.4,13.32,11.06,297.4
"2010-04-14 00:57:00",23614,14.72,333.9,3.597,0.827,13.79,104.2978,10.28,11.67,16.17,0,110.4,13.32,11.06,295.9
"2010-04-14 00:57:30",23615,14.13,333.4,3.219,1.03,13.46,104.2953,10.27,11.65,16.29,0,110.4,13.32,11.06,295.4
"2010-04-14 00:58:00",23616,14.14,334.6,3.251,1.007,13.03,104.2738,10.21,11.64,16.92,0,110.4,13.32,11.00,296.6
"2010-04-14 00:58:30",23617,14.42,333.7,3.194,0.817,12.9,104.264,10.19,11.61,16.99,0,110.4,13.32,10.98,295.7
"2010-04-14 00:59:00",23618,14.61,331.8,2.87,0.819,12.97,104.264,10.19,11.59,16.93,0,110.4,13.31,10.98,293.8
"2010-04-14 00:59:30",23619,14.47,332.1,3.747,0.733,12.75,104.2583,10.17,11.57,16.67,0,110.3,13.31,10.96,294.1
"2010-04-14 01:00:00",23620,13.83,330.8,6.225,1.254,11.63,104.2327,10.11,11.47,16.64,0,110.4,13.31,10.90,292.8
"2010-04-14 01:00:30",23621,12.27,321.1,1.259,0.187,8.49,104.2301,10.1,11.21,16.58,0,110.4,13.35,10.89,283.1
"2010-04-14 01:01:00",23622,12.87,323.6,4.502,0.807,9.36,104.2301,10.1,11.2,16.32,0,110.4,13.32,10.89,285.6
"2010-04-14 01:01:30",23623,14.22,332.4,5.748,1.169,13.07,104.2146,10.06,11.46,16.5,0,110.3,13.32,10.85,294.4
"2010-04-14 01:02:00",23624,14.86,332.9,4.077,0.717,14.39,104.1963,10.02,11.47,16.07,0,110.4,13.32,10.80,294.9
"2010-04-14 01:02:30",23625,13.53,334,2.978,0.949,14.09,104.1963,10.02,11.44,15.73,0,110.4,13.32,10.80,296.0
"2010-04-14 01:03:00",23626,13.26,329.9,5.073,1.224,13.15,104.1912,10,11.41,15.39,0,110.3,13.32,10.79,291.9
"2010-04-14 01:03:30",23627,12.97,321,5.87,1.149,10.51,104.1706,9.95,11.21,15.29,0,110.3,13.32,10.74,283.0
"2010-04-14 01:04:00",23628,13.19,320.8,6.651,1.27,11.35,104.1624,9.93,11.19,14.68,0,110.3,13.32,10.72,282.8
"2010-04-14 01:04:30",23629,12.15,317,6.338,1.223,11.43,104.1624,9.93,11.25,14.43,0,110.3,13.32,10.72,279.0
"2010-04-14 01:05:00",23630,13.48,331.4,4.983,1.079,13.32,104.1602,9.92,11.23,14.88,0,110.3,13.33,10.71,293.4
"2010-04-14 01:05:30",23631,13.51,335.3,3.137,0.941,13.94,104.1393,9.87,11.31,16.17,0,110.4,13.33,10.66,297.3
"2010-04-14 01:06:00",23632,14.11,333.8,5.499,1.25,12.93,104.1286,9.84,11.24,16.66,0,110.3,13.33,10.63,295.8
"2010-04-14 01:06:30",23633,13.43,334.9,7.497,1.284,12.36,104.1286,9.84,11.18,17.1,0,110.3,13.33,10.63,296.9
"2010-04-14 01:07:00",23634,13.1,339.4,6.233,1.277,11.57,104.1286,9.84,11.07,17.71,0,110.3,13.33,10.63,301.4
"2010-04-14 01:07:30",23635,12.75,337.8,5.029,1.41,10.53,104.1286,9.84,11.11,18.61,0,110.3,13.33,10.63,299.8
"2010-04-14 01:08:00",23636,15.05,338.3,5.521,1.211,11.34,104.1156,9.81,11.09,19.72,0,110.3,13.33,10.60,300.3
"2010-04-14 01:08:30",23637,15.28,341.6,6.498,1.18,12.16,104.0947,9.76,11.18,21.05,0,110.3,13.33,10.54,303.6
"2010-04-14 01:09:00",23638,15.65,342.3,3.946,0.914,12.97,104.0891,9.74,11.19,21.65,0,110.3,13.33,10.53,304.3
"2010-04-14 01:09:30",23639,15.22,341.8,5.763,1.18,12.73,104.064,9.68,11.13,21.81,0,110.3,13.33,10.46,303.8
"2010-04-14 01:10:00",23640,15.18,336,5.965,1.131,10.8,104.0438,9.63,11.01,22.32,0,110.3,13.33,10.41,298.0
"2010-04-14 01:10:30",23641,15.93,338.2,5.931,1.316,11.8,104.0287,9.59,11.08,22.69,0,110.3,13.33,10.37,300.2
"2010-04-14 01:11:00",23642,15.88,337.1,5.051,1.085,12.62,104.0056,9.53,11.04,21.88,0,110.3,13.33,10.31,299.1
"2010-04-14 01:11:30",23643,16.64,335.8,5.73,0.943,12.12,103.9873,9.48,10.98,21.58,0,110.3,13.33,10.27,297.8
"2010-04-14 01:12:00",23644,16.37,335.2,4.319,0.993,12.55,103.9726,9.44,10.93,21.99,0,110.3,13.33,10.23,297.2
"2010-04-14 01:12:30",23645,15.76,337.3,3.471,0.723,12.6,103.9482,9.38,10.91,21.81,0,110.3,13.33,10.17,299.3
"2010-04-14 01:13:00",23646,16.06,336.2,3.295,0.879,12.46,103.9362,9.35,10.84,21.76,0,110.3,13.33,10.14,298.2
"2010-04-14 01:13:30",23647,16.22,335.3,3.384,0.794,12.69,103.9172,9.3,10.8,21.66,0,110.3,13.33,10.09,297.3
"2010-04-14 01:14:00",23648,15.85,334,4.471,0.737,12.55,103.904,9.27,10.75,21.44,0,110.3,13.33,10.05,296.0
"2010-04-14 01:14:30",23649,15.63,334.4,3.586,0.715,12.49,103.8863,9.22,10.69,21.64,0,110.3,13.33,10.01,296.4
"2010-04-14 01:15:00",23650,16.06,333.1,3.297,0.796,12.54,103.8664,9.17,10.65,21.74,0,110.3,13.33,9.96,295.1
"2010-04-14 01:15:30",23651,16.31,332.5,2.477,0.771,12.28,103.8568,9.15,10.59,22.14,0,110.3,13.33,9.93,294.5
"2010-04-14 01:16:00",23652,15.93,333.8,2.355,0.867,12.35,103.8402,9.11,10.56,22.25,0,110.3,13.33,9.89,295.8
"2010-04-14 01:16:30",23653,15.85,333.4,3.333,0.971,12.54,103.825,9.07,10.53,22.12,0,110.3,13.33,9.85,295.4
"2010-04-14 01:17:00",23654,14.95,333.9,2.899,0.908,12.88,103.805,9.02,10.47,21.61,0,110.3,13.33,9.80,295.9
"2010-04-14 01:17:30",23655,14.86,332.9,3.105,0.675,12.87,103.7915,8.98,10.44,21.02,0,110.2,13.33,9.76,294.9
"2010-04-14 01:18:00",23656,14.2,330.7,3.247,0.938,12.65,103.7813,8.95,10.4,20.6,0,110.3,13.33,9.74,292.7
"2010-04-14 01:18:30",23657,14.2,331.6,3.374,0.826,12.44,103.7664,8.92,10.36,20.69,0,110.3,13.33,9.70,293.6
"2010-04-14 01:19:00",23658,13.96,332.3,3.1,0.81,12.68,103.7576,8.89,10.34,21,0,110.3,13.33,9.68,294.3
"2010-04-14 01:19:30",23659,14.66,332,2.241,0.782,12.26,103.7576,8.89,10.32,21.03,0,110.2,13.33,9.68,294.0
"2010-04-14 01:20:00",23660,14.36,330.9,2.781,0.902,12.5,103.7528,8.88,10.3,20.97,0,110.2,13.33,9.66,292.9
"2010-04-14 01:20:30",23661,14.63,331,2.245,0.93,12.51,103.7305,8.82,10.26,20.55,0,110.2,13.33,9.61,293.0
"2010-04-14 01:21:00",23662,15.04,330.8,2.331,0.968,12.74,103.7238,8.81,10.22,20.36,0,110.2,13.33,9.59,292.8
"2010-04-14 01:21:30",23663,14.99,331.4,3.211,0.761,12.67,103.7238,8.81,10.21,20.22,0,110.2,13.33,9.59,293.4
"2010-04-14 01:22:00",23664,14.92,329.6,2.783,0.956,12.75,103.7238,8.81,10.19,20.19,0,110.2,13.33,9.59,291.6
"2010-04-14 01:22:30",23665,14.98,328.8,2.633,0.886,12.83,103.7229,8.81,10.18,20.08,0,110.2,13.33,9.59,290.8
"2010-04-14 01:23:00",23666,14.52,328.7,3.022,0.774,13.03,103.7136,8.78,10.16,19.67,0,110.2,13.33,9.56,290.7
"2010-04-14 01:23:30",23667,14.86,326.3,3.201,0.727,12.87,103.7015,8.75,10.15,19.53,0,110.2,13.33,9.53,288.3
"2010-04-14 01:24:00",23668,14.02,322.3,3.524,0.706,12.86,103.6902,8.72,10.15,19.48,0,110.2,13.33,9.50,284.3
"2010-04-14 01:24:30",23669,14.66,326,2.346,0.947,12.67,103.6899,8.72,10.12,19.58,0,110.2,13.33,9.50,288.0
"2010-04-14 01:25:00",23670,15.02,326.5,3.052,0.725,12.76,103.6899,8.72,10.1,20.11,0,110.2,13.33,9.50,288.5
"2010-04-14 01:25:30",23671,15.36,326,2.853,0.825,12.79,103.6899,8.72,10.09,20.16,0,110.2,13.33,9.50,288.0
"2010-04-14 01:26:00",23672,15.28,325.3,2.891,0.866,12.84,103.6899,8.72,10.11,20.06,0,110.2,13.33,9.50,287.3
"2010-04-14 01:26:30",23673,15.47,325.1,3.059,0.785,12.76,103.6908,8.72,10.07,20.2,0,110.2,13.33,9.51,287.1
"2010-04-14 01:27:00",23674,15.94,325.9,1.828,0.822,12.85,103.6934,8.73,10.08,20,0,110.2,13.33,9.51,287.9
"2010-04-14 01:27:30",23675,16.63,324.7,3.459,0.995,12.69,103.694,8.73,10.08,20.39,0,110.2,13.33,9.51,286.7
"2010-04-14 01:28:00",23676,16.84,324.7,3.104,0.901,12.75,103.6936,8.73,10.09,20.87,0,110.2,13.33,9.51,286.7
"2010-04-14 01:28:30",23677,17.15,324.1,2.19,0.954,12.8,103.6924,8.73,10.06,20.82,0,110.2,13.33,9.51,286.1
"2010-04-14 01:29:00",23678,17.18,322.2,2.767,0.839,12.96,103.6821,8.7,10.07,20.97,0,110.2,13.34,9.48,284.2
"2010-04-14 01:29:30",23679,17.42,322.6,2.745,0.723,12.78,103.6771,8.69,10.05,21.11,0,110.2,13.34,9.47,284.6
"2010-04-14 01:30:00",23680,17.25,322.3,4.322,0.693,12.97,103.6821,8.7,10.05,21.15,0,110.2,13.34,9.48,284.3
"2010-04-14 01:30:30",23681,17.23,321.6,3.342,0.98,13.09,103.6853,8.71,10.05,20.84,0,110.2,13.34,9.49,283.6
"2010-04-14 01:31:00",23682,17.85,323.6,1.838,0.846,13.04,103.6888,8.72,10.04,20.63,0,110.2,13.34,9.50,285.6
"2010-04-14 01:31:30",23683,18.36,322.1,2.735,0.659,12.91,103.6897,8.72,10.02,20.86,0,110.2,13.34,9.50,284.1
"2010-04-14 01:32:00",23684,17.96,321.5,3.539,0.746,13.16,103.6869,8.71,10.02,21.08,0,110.2,13.34,9.50,283.5
"2010-04-14 01:32:30",23685,17.69,321,1.775,0.921,13.02,103.6658,8.66,10.01,20.75,0,110.2,13.34,9.44,283.0
"2010-04-14 01:33:00",23686,16.12,319,2.873,0.982,13.43,103.6576,8.64,9.99,20.18,0,110.2,13.34,9.42,281.0
"2010-04-14 01:33:30",23687,16.78,319.4,3.088,0.957,13.22,103.6573,8.64,9.98,19.97,0,110.2,13.34,9.42,281.4
"2010-04-14 01:34:00",23688,17.11,320.5,3.034,0.939,12.89,103.6573,8.64,9.99,20.01,0,110.2,13.34,9.42,282.5
"2010-04-14 01:34:30",23689,17.83,320.9,2.557,0.968,12.83,103.6573,8.64,9.96,20.48,0,110.2,13.34,9.42,282.9
"2010-04-14 01:35:00",23690,17.78,319.6,2.126,0.911,13.09,103.6573,8.64,9.95,20.62,0,110.2,13.34,9.42,281.6
"2010-04-14 01:35:30",23691,17.63,319.9,1.88,0.782,13.03,103.657,8.64,9.94,20.32,0,110.1,13.34,9.42,281.9
"2010-04-14 01:36:00",23692,17.85,320.8,1.859,0.781,13.02,103.6564,8.64,9.97,20.3,0,110.2,13.35,9.42,282.8
"2010-04-14 01:36:30",23693,17.77,320.4,3.146,0.771,13.02,103.6508,8.62,9.94,20.34,0,110.2,13.35,9.40,282.4
"2010-04-14 01:37:00",23694,17.4,321,2.925,0.853,13.08,103.6375,8.59,9.93,20.51,0,110.1,13.35,9.37,283.0
"2010-04-14 01:37:30",23695,17.45,321.7,2.924,0.679,12.94,103.6291,8.57,9.91,20.61,0,110.1,13.35,9.35,283.7
"2010-04-14 01:38:00",23696,17.83,322.4,3.168,0.787,13.04,103.6237,8.55,9.93,20.83,0,110.1,13.35,9.33,284.4
"2010-04-14 01:38:30",23697,17.78,321.8,3.011,0.86,12.95,103.6234,8.55,9.91,20.85,0,110.1,13.35,9.33,283.8
"2010-04-14 01:39:00",23698,17.97,321.4,2.161,0.862,13.2,103.6234,8.55,9.92,20.94,0,110.1,13.35,9.33,283.4
"2010-04-14 01:39:30",23699,17.67,320.6,2.924,0.693,13.11,103.6234,8.55,9.9,20.72,0,110.1,13.35,9.33,282.6
"2010-04-14 01:40:00",23700,17.5,320,3.201,0.793,13,103.6234,8.55,9.91,20.83,0,110.1,13.35,9.33,282.0
"2010-04-14 01:40:30",23701,17.42,320.3,2.631,0.809,13.05,103.6234,8.55,9.89,20.97,0,110.1,13.35,9.33,282.3
"2010-04-14 01:41:00",23702,17.04,320.7,2.904,0.841,13.25,103.6234,8.55,9.89,20.81,0,110.1,13.34,9.33,282.7
"2010-04-14 01:41:30",23703,16.99,318.9,3.318,0.807,13.14,103.6235,8.55,9.89,20.56,0,110.1,13.34,9.33,280.9
"2010-04-14 01:42:00",23704,17.34,319.6,1.927,0.771,12.99,103.6187,8.54,9.89,20.44,0,110.1,13.34,9.32,281.6
"2010-04-14 01:42:30",23705,17.23,318.9,2.823,0.898,12.99,103.6137,8.53,9.87,20.53,0,110.1,13.34,9.31,280.9
"2010-04-14 01:43:00",23706,16.87,318.4,3.085,0.84,13.24,103.6121,8.52,9.87,20.28,0,110.1,13.34,9.30,280.4
"2010-04-14 01:43:30",23707,16.86,318.2,2.588,0.667,13.09,103.6137,8.53,9.86,20.18,0,110.1,13.35,9.31,280.2
"2010-04-14 01:44:00",23708,16.53,318,2.305,0.864,13.05,103.6093,8.51,9.85,20.14,0,110.1,13.35,9.30,280.0
"2010-04-14 01:44:30",23709,16.49,318.4,2.248,0.877,12.9,103.6103,8.52,9.86,20.11,0,110.1,13.35,9.30,280.4
"2010-04-14 01:45:00",23710,16.35,318.5,2.397,0.941,12.95,103.6132,8.52,9.84,20.34,0,110.1,13.35,9.31,280.5
"2010-04-14 01:45:30",23711,16.16,317.6,2.893,0.714,12.79,103.615,8.53,9.85,20.44,0,110.1,13.36,9.31,279.6
"2010-04-14 01:46:00",23712,15.93,318.4,3.617,0.728,12.83,103.6185,8.54,9.86,20.62,0,110.1,13.36,9.32,280.4
"2010-04-14 01:46:30",23713,15.69,318.8,3.219,0.765,12.75,103.6211,8.55,9.86,20.74,0,110.1,13.36,9.33,280.8
"2010-04-14 01:47:00",23714,15.35,320.5,2.407,0.848,12.78,103.6238,8.55,9.84,20.87,0,110.1,13.36,9.33,282.5
"2010-04-14 01:47:30",23715,14.96,323.3,2.235,0.829,12.51,103.6247,8.55,9.85,21.13,0,110.1,13.36,9.34,285.3
"2010-04-14 01:48:00",23716,14.57,323.8,3.219,0.82,12.43,103.6247,8.55,9.86,21.37,0,110.1,13.36,9.34,285.8
"2010-04-14 01:48:30",23717,14.71,325.4,4.174,0.753,12.47,103.6247,8.55,9.83,21.69,0,110.1,13.36,9.34,287.4
"2010-04-14 01:49:00",23718,14.58,325.4,2.552,0.98,12.59,103.6247,8.55,9.84,21.64,0,110.1,13.36,9.34,287.4
"2010-04-14 01:49:30",23719,14.72,324.9,4.298,0.711,12.36,103.6233,8.55,9.82,21.89,0,110.1,13.36,9.33,286.9